Location: Rounton
(54.4000°N, 1.3500°W)
Time: 12:37:44
(UTC+00:00)

Transit 2A - Pass Details

Date: 01 December 2021
Orbit: 591 x 967 km, 66.7° (Epoch: 17 January)

Event Time Altitude Azimuth Distance (km) Brightness Sun altitude
Rises 10:43:31 0° 314° (NW) 3,662 9.0 12.2°
Reaches altitude 10° 10:46:43 10° 299° (WNW) 2,715 8.5 12.3°
Maximum altitude 10:51:15 21° 254° (WSW) 2,021 8.3 12.5°
Drops below altitude 10° 10:55:41 10° 208° (SSW) 2,644 9.7 12.7°
Sets 10:58:46 0° 193° (SSW) 3,538 10.7 12.8°
